KAC113 EGPH-EIDW

Flight info

Callsign KAC113
Flight time 0h 41m
Altitude 22000
Route GOSAM P600 TRN/N0421F240 DCT BLACA P620 NIMAT NIMAT3R
Aircraft A320/M-SDE3FGHIRWY/LB1

Departure

Time 2026-04-25 20:54
Airport Edinburgh Airport (EGPH)

Arrival

Time 2026-04-25 21:35
Airport Dublin Airport (EIDW)
Time Latitude Longitude Altitude Speed Heading
2026-04-25 20:18 55.94752 -3.36602 106 ft 0 kts 89°
2026-04-25 20:42 55.94752 -3.36609 106 ft 2 kts 89°
2026-04-25 20:42 55.94752 -3.36638 106 ft 2 kts 89°
2026-04-25 20:42 55.94752 -3.36667 105 ft 2 kts 88°
2026-04-25 20:43 55.94751 -3.36697 105 ft 2 kts 88°
2026-04-25 20:43 55.94749 -3.36725 105 ft 2 kts 38°
2026-04-25 20:43 55.94734 -3.36737 104 ft 2 kts
2026-04-25 20:43 55.94730 -3.36738 105 ft 0 kts 354°
2026-04-25 20:45 55.94743 -3.36741 105 ft 9 kts 350°
2026-04-25 20:45 55.94817 -3.36781 105 ft 9 kts
2026-04-25 20:46 55.94882 -3.36786 105 ft 9 kts 338°
2026-04-25 20:46 55.94924 -3.36836 105 ft 6 kts 318°
2026-04-25 20:46 55.94912 -3.36937 104 ft 11 kts 240°
2026-04-25 20:46 55.94876 -3.37039 105 ft 9 kts 239°
2026-04-25 20:47 55.94850 -3.37119 105 ft 7 kts 239°
2026-04-25 20:47 55.94826 -3.37188 104 ft 6 kts 239°
2026-04-25 20:47 55.94807 -3.37245 105 ft 4 kts 239°
2026-04-25 20:47 55.94794 -3.37284 106 ft 7 kts 239°
2026-04-25 20:48 55.94773 -3.37346 107 ft 4 kts 238°
2026-04-25 20:48 55.94755 -3.37398 109 ft 5 kts 238°
2026-04-25 20:48 55.94729 -3.37476 110 ft 11 kts 239°
2026-04-25 20:48 55.94694 -3.37577 111 ft 9 kts 239°
2026-04-25 20:49 55.94668 -3.37656 113 ft 6 kts 239°
2026-04-25 20:49 55.94640 -3.37738 113 ft 10 kts 239°
2026-04-25 20:49 55.94603 -3.37846 112 ft 11 kts 239°
2026-04-25 20:49 55.94566 -3.37956 113 ft 11 kts 238°
2026-04-25 20:50 55.94512 -3.38114 110 ft 16 kts 238°
2026-04-25 20:50 55.94455 -3.38279 111 ft 14 kts 239°
2026-04-25 20:50 55.94410 -3.38414 113 ft 12 kts 239°
2026-04-25 20:50 55.94371 -3.38528 113 ft 9 kts 239°
2026-04-25 20:51 55.94340 -3.38621 116 ft 7 kts 239°
2026-04-25 20:51 55.94308 -3.38716 118 ft 15 kts 239°
2026-04-25 20:51 55.94281 -3.38801 116 ft 0 kts 250°
2026-04-25 20:51 55.94281 -3.38849 116 ft 8 kts 299°
2026-04-25 20:52 55.94324 -3.38904 118 ft 7 kts 327°
2026-04-25 20:52 55.94331 -3.38912 119 ft 0 kts 327°
2026-04-25 20:52 55.94332 -3.38913 119 ft 1 kts 328°
2026-04-25 20:53 55.94380 -3.38955 115 ft 15 kts 350°
2026-04-25 20:53 55.94483 -3.38768 114 ft 41 kts 58°
2026-04-25 20:53 55.94759 -3.37964 114 ft 107 kts 58°
2026-04-25 20:53 55.95239 -3.36560 201 ft 150 kts 58°
2026-04-25 20:54 55.95790 -3.34979 894 ft 149 kts 60°
2026-04-25 20:54 55.96477 -3.33561 1546 ft 158 kts 46°
2026-04-25 20:54 55.97345 -3.32146 1959 ft 180 kts 46°
2026-04-25 20:54 55.98318 -3.30566 2281 ft 202 kts 45°
2026-04-25 20:55 55.99432 -3.28833 2615 ft 224 kts 37°
2026-04-25 20:55 56.01009 -3.28039 3006 ft 253 kts 356°
2026-04-25 20:55 56.02660 -3.29249 3678 ft 263 kts 316°
2026-04-25 20:55 56.03590 -3.31991 4622 ft 260 kts 281°
2026-04-25 20:56 56.03581 -3.35219 5539 ft 262 kts 260°
2026-04-25 20:56 56.03125 -3.38354 6284 ft 264 kts 252°
2026-04-25 20:56 56.02517 -3.41489 7150 ft 268 kts 250°
2026-04-25 20:56 56.01898 -3.44643 8047 ft 269 kts 250°
2026-04-25 20:57 56.01314 -3.47846 8886 ft 272 kts 251°
2026-04-25 20:57 56.00771 -3.51112 9736 ft 275 kts 252°
2026-04-25 20:57 56.00257 -3.54446 10507 ft 281 kts 253°
2026-04-25 20:57 55.99744 -3.57913 10792 ft 303 kts 254°
2026-04-25 20:58 55.99198 -3.61710 11012 ft 327 kts 254°
2026-04-25 20:58 55.98620 -3.65774 11331 ft 344 kts 255°
2026-04-25 20:58 55.98025 -3.69965 11939 ft 350 kts 254°
2026-04-25 20:58 55.97421 -3.74200 12619 ft 354 kts 254°
2026-04-25 20:59 55.96805 -3.78476 13308 ft 358 kts 254°
2026-04-25 20:59 55.96185 -3.82763 13984 ft 361 kts 254°
2026-04-25 20:59 55.95549 -3.87133 14622 ft 365 kts 254°
2026-04-25 20:59 55.94908 -3.91538 15264 ft 367 kts 254°
2026-04-25 21:00 55.94259 -3.95974 15889 ft 370 kts 253°
2026-04-25 21:00 55.94015 -3.97397 16087 ft 370 kts 249°
2026-04-25 21:00 55.89720 -4.06793 17659 ft 377 kts 215°
2026-04-25 21:01 55.87540 -4.09449 18234 ft 380 kts 216°
2026-04-25 21:01 55.85372 -4.12098 18757 ft 383 kts 216°
2026-04-25 21:01 55.83158 -4.14803 19245 ft 386 kts 215°
2026-04-25 21:01 55.80808 -4.17190 19712 ft 390 kts 209°
2026-04-25 21:02 55.78380 -4.19402 20200 ft 393 kts 208°
2026-04-25 21:02 55.75928 -4.21591 20672 ft 396 kts 208°
2026-04-25 21:02 55.73448 -4.23786 21147 ft 398 kts 208°
2026-04-25 21:02 55.70986 -4.25957 21599 ft 401 kts 208°
2026-04-25 21:03 55.68471 -4.28177 22051 ft 403 kts 208°
2026-04-25 21:03 55.65954 -4.30410 22242 ft 405 kts 208°
2026-04-25 21:03 55.63389 -4.32691 22282 ft 418 kts 208°
2026-04-25 21:03 55.60794 -4.35001 22265 ft 425 kts 208°
2026-04-25 21:04 55.58144 -4.37355 22255 ft 426 kts 208°
2026-04-25 21:04 55.55486 -4.39709 22248 ft 427 kts 208°
2026-04-25 21:04 55.52820 -4.42061 22244 ft 427 kts 208°
2026-04-25 21:04 55.50151 -4.44413 22255 ft 427 kts 208°
2026-04-25 21:05 55.47526 -4.46726 22247 ft 426 kts 208°
2026-04-25 21:05 55.44865 -4.49063 22248 ft 426 kts 208°
2026-04-25 21:05 55.42203 -4.51391 22249 ft 426 kts 208°
2026-04-25 21:05 55.39540 -4.53722 22249 ft 426 kts 208°
2026-04-25 21:06 55.36920 -4.56020 22244 ft 426 kts 208°
2026-04-25 21:06 55.34263 -4.58352 22238 ft 426 kts 208°
2026-04-25 21:06 55.31611 -4.60675 22235 ft 426 kts 208°
2026-04-25 21:06 55.30712 -4.61461 22236 ft 426 kts 208°
2026-04-25 21:07 55.27193 -4.64529 22230 ft 426 kts 208°
2026-04-25 21:07 55.24528 -4.66841 22238 ft 426 kts 208°
2026-04-25 21:07 55.21862 -4.69150 22223 ft 426 kts 208°
2026-04-25 21:07 55.19200 -4.71455 22223 ft 426 kts 208°
2026-04-25 21:08 55.16570 -4.73731 22209 ft 426 kts 208°
2026-04-25 21:08 55.13911 -4.76027 22211 ft 426 kts 208°
2026-04-25 21:08 55.11248 -4.78324 22218 ft 426 kts 208°
2026-04-25 21:08 55.08585 -4.80623 22212 ft 426 kts 208°
2026-04-25 21:09 55.03286 -4.85187 22208 ft 426 kts 208°
2026-04-25 21:09 55.00613 -4.87482 22217 ft 427 kts 208°
2026-04-25 21:09 54.97944 -4.89775 22216 ft 427 kts 208°
2026-04-25 21:10 54.95280 -4.92060 22216 ft 426 kts 208°
2026-04-25 21:10 54.92617 -4.94338 22221 ft 426 kts 208°
2026-04-25 21:10 54.89985 -4.96581 22215 ft 426 kts 207°
2026-04-25 21:10 54.87312 -4.98847 22221 ft 426 kts 207°
2026-04-25 21:11 54.84641 -5.01105 22216 ft 426 kts 207°
2026-04-25 21:11 54.81972 -5.03362 22222 ft 426 kts 207°
2026-04-25 21:11 54.79307 -5.05617 22226 ft 426 kts 207°
2026-04-25 21:11 54.76641 -5.07877 22228 ft 426 kts 207°
2026-04-25 21:12 54.74008 -5.10108 22226 ft 426 kts 207°
2026-04-25 21:12 54.71345 -5.12359 22224 ft 426 kts 207°
2026-04-25 21:12 54.68673 -5.14615 22224 ft 426 kts 207°
2026-04-25 21:12 54.66901 -5.16110 22229 ft 425 kts 207°
2026-04-25 21:13 54.63426 -5.19038 21746 ft 413 kts 207°
2026-04-25 21:13 54.60848 -5.21204 21134 ft 408 kts 207°
2026-04-25 21:13 54.58296 -5.23343 20510 ft 404 kts 207°
2026-04-25 21:13 54.55775 -5.25452 19902 ft 401 kts 207°
2026-04-25 21:14 54.53271 -5.27542 19305 ft 397 kts 207°
2026-04-25 21:14 54.50822 -5.29582 18733 ft 394 kts 207°
2026-04-25 21:14 54.48355 -5.31636 18111 ft 391 kts 207°
2026-04-25 21:14 54.45913 -5.33669 17478 ft 388 kts 207°
2026-04-25 21:15 54.43493 -5.35681 16873 ft 384 kts 207°
2026-04-25 21:15 54.41116 -5.37650 16368 ft 382 kts 206°
2026-04-25 21:15 54.38725 -5.39629 16210 ft 381 kts 206°
2026-04-25 21:15 54.36325 -5.41613 16223 ft 382 kts 206°
2026-04-25 21:16 54.33927 -5.43597 16230 ft 382 kts 206°
2026-04-25 21:16 54.31532 -5.45578 16232 ft 382 kts 206°
2026-04-25 21:16 54.29133 -5.47559 16231 ft 382 kts 206°
2026-04-25 21:16 54.26737 -5.49531 16231 ft 382 kts 206°
2026-04-25 21:17 54.24337 -5.51506 16231 ft 382 kts 206°
2026-04-25 21:17 54.21965 -5.53459 16230 ft 382 kts 206°
2026-04-25 21:17 54.19560 -5.55436 16232 ft 382 kts 206°
2026-04-25 21:17 54.17159 -5.57405 16230 ft 382 kts 206°
2026-04-25 21:18 54.14787 -5.59345 16228 ft 382 kts 206°
2026-04-25 21:18 54.12386 -5.61306 16228 ft 382 kts 206°
2026-04-25 21:18 54.09984 -5.63265 16225 ft 382 kts 206°
2026-04-25 21:18 54.07582 -5.65222 16227 ft 382 kts 206°
2026-04-25 21:19 54.05180 -5.67178 16230 ft 382 kts 206°
2026-04-25 21:19 54.02776 -5.69131 16230 ft 382 kts 206°
2026-04-25 21:19 54.00418 -5.71129 16226 ft 381 kts 211°
2026-04-25 21:19 53.98380 -5.73992 16224 ft 381 kts 228°
2026-04-25 21:20 53.96701 -5.77485 16066 ft 378 kts 231°
2026-04-25 21:20 53.95614 -5.79793 15683 ft 376 kts 231°
2026-04-25 21:20 53.93461 -5.84400 14918 ft 374 kts 231°
2026-04-25 21:20 53.91848 -5.87852 14373 ft 371 kts 231°
2026-04-25 21:21 53.90247 -5.91276 13801 ft 369 kts 231°
2026-04-25 21:21 53.88652 -5.94679 13205 ft 366 kts 230°
2026-04-25 21:21 53.87068 -5.98051 12626 ft 363 kts 230°
2026-04-25 21:21 53.85514 -6.01349 12056 ft 360 kts 230°
2026-04-25 21:22 53.83951 -6.04659 11481 ft 357 kts 230°
2026-04-25 21:22 53.82403 -6.07932 10912 ft 354 kts 230°
2026-04-25 21:22 53.80864 -6.11178 10391 ft 352 kts 230°
2026-04-25 21:22 53.79351 -6.14366 10213 ft 349 kts 230°
2026-04-25 21:23 53.77866 -6.17498 10059 ft 333 kts 230°
2026-04-25 21:23 53.76441 -6.20493 9935 ft 318 kts 230°
2026-04-25 21:23 53.75077 -6.23358 9791 ft 305 kts 230°
2026-04-25 21:23 53.73787 -6.26066 9660 ft 293 kts 230°
2026-04-25 21:24 53.72527 -6.28713 9533 ft 282 kts 229°
2026-04-25 21:24 53.71309 -6.31266 9300 ft 275 kts 229°
2026-04-25 21:24 53.70109 -6.33770 8952 ft 273 kts 229°
2026-04-25 21:24 53.68919 -6.36251 8585 ft 271 kts 229°
2026-04-25 21:25 53.67746 -6.38696 8212 ft 269 kts 229°
2026-04-25 21:25 53.66567 -6.41157 7829 ft 268 kts 229°
2026-04-25 21:25 53.65397 -6.43597 7457 ft 266 kts 229°
2026-04-25 21:25 53.64244 -6.45996 7089 ft 265 kts 229°
2026-04-25 21:26 53.63084 -6.48403 6710 ft 263 kts 229°
2026-04-25 21:26 53.61927 -6.50802 6319 ft 262 kts 229°
2026-04-25 21:26 53.60792 -6.53152 5911 ft 261 kts 229°
2026-04-25 21:26 53.59645 -6.55527 5481 ft 260 kts 229°
2026-04-25 21:27 53.58503 -6.57894 5081 ft 260 kts 229°
2026-04-25 21:27 53.57364 -6.60250 4650 ft 259 kts 229°
2026-04-25 21:27 53.56222 -6.62607 4218 ft 259 kts 229°
2026-04-25 21:27 53.55001 -6.64839 3772 ft 258 kts 218°
2026-04-25 21:28 53.53503 -6.66410 3327 ft 258 kts 202°
2026-04-25 21:28 53.51782 -6.67204 3016 ft 255 kts 185°
2026-04-25 21:28 53.50052 -6.67468 2972 ft 241 kts 184°
2026-04-25 21:28 53.48434 -6.67718 2986 ft 225 kts 184°
2026-04-25 21:29 53.46926 -6.67474 2987 ft 220 kts 154°
2026-04-25 21:29 53.45868 -6.65808 2983 ft 205 kts 115°
2026-04-25 21:29 53.45576 -6.63520 2990 ft 199 kts 95°
2026-04-25 21:29 53.45468 -6.61238 2997 ft 197 kts 95°
2026-04-25 21:30 53.45355 -6.58943 2998 ft 196 kts 95°
2026-04-25 21:30 53.45238 -6.56662 3001 ft 196 kts 95°
2026-04-25 21:30 53.45122 -6.54437 3011 ft 184 kts 95°
2026-04-25 21:30 53.45050 -6.53057 3000 ft 168 kts 96°
2026-04-25 21:31 53.44921 -6.50589 2848 ft 155 kts 95°
2026-04-25 21:31 53.44828 -6.48838 2706 ft 146 kts 95°
2026-04-25 21:31 53.44739 -6.47151 2501 ft 143 kts 96°
2026-04-25 21:31 53.44651 -6.45511 2327 ft 143 kts 95°
2026-04-25 21:32 53.44563 -6.43852 2127 ft 142 kts 96°
2026-04-25 21:32 53.44476 -6.42197 1877 ft 141 kts 95°
2026-04-25 21:32 53.44405 -6.40550 1681 ft 141 kts 95°
2026-04-25 21:32 53.44351 -6.38933 1545 ft 141 kts 96°
2026-04-25 21:33 53.44237 -6.37302 1362 ft 141 kts 97°
2026-04-25 21:33 53.44118 -6.35675 1136 ft 140 kts 97°
2026-04-25 21:33 53.44028 -6.34060 957 ft 140 kts 96°
2026-04-25 21:33 53.43960 -6.32465 784 ft 138 kts 95°
2026-04-25 21:34 53.43875 -6.30866 604 ft 137 kts 97°
2026-04-25 21:34 53.43787 -6.29281 408 ft 136 kts 97°
2026-04-25 21:34 53.43695 -6.27711 241 ft 132 kts 98°
2026-04-25 21:34 53.43624 -6.26377 229 ft 91 kts 95°
2026-04-25 21:35 53.43581 -6.25603 224 ft 35 kts 94°
2026-04-25 21:35 53.43552 -6.25305 224 ft 25 kts 112°
2026-04-25 21:35 53.43474 -6.25069 225 ft 20 kts 119°
2026-04-25 21:35 53.43403 -6.24993 225 ft 13 kts 211°
2026-04-25 21:36 53.43387 -6.25116 225 ft 11 kts 270°
2026-04-25 21:36 53.43391 -6.25235 225 ft 11 kts 274°
2026-04-25 21:36 53.43397 -6.25361 225 ft 10 kts 275°
2026-04-25 21:36 53.43405 -6.25495 225 ft 11 kts 275°
2026-04-25 21:37 53.43391 -6.25642 225 ft 14 kts 224°
2026-04-25 21:37 53.43333 -6.25634 226 ft 13 kts 156°
2026-04-25 21:37 53.43205 -6.25555 225 ft 16 kts 147°
2026-04-25 21:37 53.43198 -6.25368 225 ft 20 kts 76°
2026-04-25 21:38 53.43207 -6.25157 225 ft 11 kts 95°
2026-04-25 21:38 53.43191 -6.25137 227 ft 3 kts 196°
2026-04-25 21:38 53.43144 -6.25150 225 ft 7 kts 183°
2026-04-25 21:38 53.43139 -6.25151 225 ft 0 kts 183°